Temp
7 8 8 8 8 8 7 6 7 8 9 8 8 8 10 11 10 9 8 8 9 9 10 9 9 9 9 11 12 14 15 15 15 15 14 14 14 14 14 14 14 15 15 14
8 9 9 8 8 8 8 8 7 8 8 8 8 8 9 10 9 9 9 9 9 9 9 9 9 8 8 8 9 11 13 15 15 15 15 15 14 14 14 14 14 15 14 14
7 9 8 8 8 8 8 8 8 8 8 8 8 8 8 10 10 10 9 9 9 9 8 8 8 8 7 7 8 8 9 11 15 15 15 15 14 14 14 14 14 14 13 13
7 8 7 8 9 8 8 8 7 7 7 5 8 6 8 9 9 9 9 10 9 9 9 8 8 7 7 7 7 7 8 10 12 15 15 14 14 13 14 13 13 13 13 12
10 7 6 8 9 8 8 7 7 7 6 6 7 7 8 10 10 9 9 10 9 9 8 8 7 7 7 6 6 6 6 8 11 13 15 14 14 14 13 12 12 12 12 12
5 5 6 7 7 7 7 7 7 6 7 5 7 7 9 10 9 9 9 9 9 8 8 7 7 6 6 6 5 5 5 6 8 12 15 14 14 14 12 11 10 11 11 12
4 7 6 7 7 7 7 5 2 3 2 5 8 8 9 9 9 9 9 9 7 8 7 6 6 6 5 5 5 4 5 5 7 10 13 14 14 13 13 10 10 9 9 10
2 6 6 6 7 6 6 5 1 2 4 7 9 7 10 9 9 9 9 8 8 7 6 5 5 4 4 4 4 4 4 4 5 7 11 13 13 12 12 11 10 9 9 10
1 5 5 6 6 6 5 2 6 6 2 5 8 9 10 9 9 9 7 7 7 6 5 4 3 3 3 3 4 4 4 4 4 6 9 13 13 11 10 10 10 9 8 7
4 -0 5 5 5 6 5 6 3 1 3 4 7 9 10 10 8 7 5 5 4 4 3 3 2 2 2 3 4 4 4 4 4 5 8 12 12 10 9 9 8 7 5 4
3 2 5 4 6 5 2 1 2 5 5 5 7 9 10 8 7 5 4 4 3 2 2 2 1 1 2 3 3 4 4 4 4 5 7 9 9 8 7 6 5 4 3 2
4 1 -0 4 5 4 5 3 2 1 5 5 5 7 10 10 8 6 4 3 2 1 1 1 1 1 2 2 2 2 2 3 5 5 6 7 7 6 5 3 2 2 1 1
2 -2 -3 2 4 5 5 5 5 0 2 4 5 6 12 10 7 5 3 2 1 0 -0 -0 0 0 1 1 1 1 1 3 5 5 3 3 3 3 1 1 1 1 1 1
5 -1 -1 2 5 2 4 5 5 0 1 4 6 6 8 7 4 4 2 1 -0 -0 -1 -1 -1 -1 -0 -0 -0 -0 2 3 2 2 1 0 0 0 -0 -0 0 0 0 0
3 -3 -3 -1 1 1 2 2 2 1 3 3 5 5 6 6 3 3 1 0 -0 -1 -1 -2 -1 -2 -1 -1 -1 -1 -1 0 0 -0 -0 -1 -1 -1 -0 -0 -1 -0 -0 -0
2 -2 0 -2 1 2 2 3 3 3 3 4 4 5 8 5 3 2 1 -0 -1 -2 -2 -2 -2 -2 -2 -1 -1 -1 -1 -1 -1 -1 -2 -1 -2 -1 -2 -2 -2 -2 -2 -3
0 -2 -5 -4 -0 -0 1 4 6 3 3 3 4 7 6 3 3 2 0 -1 -1 -2 -3 -3 -3 -3 -3 -3 -2 -2 -2 -2 -2 -2 -2 -2 -3 -3 -3 -4 -4 -5 -5 -4
-1 -0 -4 -5 -5 3 7 4 5 4 4 4 5 6 4 3 3 2 0 -1 -2 -3 -3 -3 -3 -4 -4 -4 -4 -3 -3 -4 -4 -4 -4 -4 -4 -5 -5 -5 -5 -5 -5 -6
3 2 -6 -7 -5 1 7 6 6 4 5 6 4 4 4 3 4 3 0 -1 -2 -3 -3 -4 -4 -4 -4 -5 -4 -4 -4 -4 -5 -5 -5 -5 -5 -5 -5 -6 -6 -6 -6 -5
2 1 -6 -9 -6 1 7 5 5 5 4 5 4 3 3 3 4 2 -0 -1 -2 -3 -4 -4 -4 -4 -5 -5 -5 -5 -5 -5 -5 -5 -5 -5 -5 -5 -6 -6 -6 -6 -5 -6
-3 -0 -3 -5 -6 -3 2 4 5 4 7 5 3 2 2 3 1 0 -1 -1 -3 -4 -4 -4 -5 -5 -5 -5 -5 -5 -5 -5 -5 -5 -5 -5 -5 -6 -6 -6 -6 -6 -6 -6
-3 -2 -6 -7 -5 0 1 3 6 6 5 5 3 2 2 2 1 -1 -1 -2 -3 -3 -4 -5 -5 -6 -5 -5 -5 -5 -6 -5 -5 -5 -5 -5 -5 -5 -5 -6 -6 -6 -5 -6
-1 1 -1 -1 1 4 2 4 5 4 4 4 3 2 1 2 1 -0 -2 -2 -2 -3 -4 -5 -5 -5 -6 -5 -6 -6 -6 -5 -4 -4 -5 -4 -5 -6 -6 -5 -5 -5 -5 -6
-1 -1 0 2 5 2 4 3 2 2 3 3 2 1 1 1 0 -0 -1 -2 -3 -4 -5 -4 -4 -5 -6 -5 -4 -5 -4 -4 -4 -6 -7 -7 -6 -6 -5 -4 -4 -5 -6 -7
-0 -1 -2 -2 2 2 3 1 3 2 1 0 -1 -0 1 1 -0 -0 -1 -2 -3 -4 -4 -4 -4 -5 -5 -4 -4 -3 -3 -2 -3 -4 -4 -5 -5 -5 -5 -5 -4 -4 -4 -3
-3 -1 2 3 3 5 5 4 2 1 0 -0 -1 -1 -1 -0 -0 -1 -2 -3 -3 -4 -4 -4 -5 -4 -4 -4 -4 -3 -2 -1 -2 -3 -3 -4 -4 -4 -4 -4 -5 -5 -4 -4
Height
827 830 834 835 834 830 833 837 832 819 808 809 798 789 767 761 761 763 765 762 759 755 750 745 740 735 730 726 724 724 724 724 726 728 732 734 734 747 754 759 764 769 773 778
831 830 831 833 830 830 829 827 826 811 806 809 796 781 763 763 761 760 759 759 756 752 747 742 738 734 731 727 723 720 719 719 719 721 723 727 721 735 743 751 757 762 767 771
841 832 834 833 829 826 823 824 820 822 809 801 797 780 768 756 759 758 757 754 754 752 745 741 736 733 729 725 722 718 716 714 714 714 716 721 725 730 735 741 746 751 757 764
838 836 836 832 826 828 825 819 822 820 820 827 803 811 771 760 761 758 758 752 750 747 743 742 736 730 726 723 719 715 711 709 707 708 709 709 713 721 726 731 737 741 745 754
829 839 840 829 826 826 823 822 818 815 818 818 805 809 769 755 753 756 755 749 746 744 742 737 733 729 723 718 715 711 707 703 701 702 703 703 708 713 720 726 730 736 741 746
844 842 841 833 829 828 826 819 814 816 815 828 805 800 765 756 753 755 752 747 744 741 736 733 728 724 719 714 710 706 702 697 695 695 696 696 701 706 712 718 724 730 736 739
851 836 838 837 834 828 830 835 862 850 852 826 794 793 765 755 755 751 748 742 743 737 733 728 724 720 714 709 704 701 698 692 689 688 689 691 695 698 704 711 717 724 728 733
882 853 840 841 838 838 839 844 876 878 852 809 782 791 756 749 748 747 745 740 735 731 728 724 720 715 710 704 698 695 693 688 685 684 682 685 689 691 698 706 711 717 722 725
890 857 843 841 839 841 845 861 838 832 852 825 787 769 749 748 746 741 744 742 735 729 726 719 713 709 704 698 693 689 686 683 681 680 678 678 683 687 693 701 707 712 717 721
872 895 846 843 840 837 842 840 856 866 852 835 791 768 749 746 748 749 748 741 734 732 724 718 711 704 698 691 686 683 680 677 675 675 675 674 678 685 690 696 702 709 715 722
871 884 850 845 837 841 857 864 855 842 835 832 801 761 748 752 754 750 746 739 737 729 722 714 706 699 692 685 680 676 674 672 670 670 670 668 674 681 689 693 700 707 714 722
869 882 885 849 840 844 841 853 855 867 840 829 821 779 746 745 748 748 745 743 737 730 722 712 703 694 685 679 674 671 668 667 666 667 667 667 673 680 688 694 701 708 716 723
872 897 907 861 847 839 839 838 839 861 855 836 824 781 737 747 752 751 747 744 738 728 720 711 701 692 683 676 671 666 661 660 662 662 666 667 673 680 690 697 705 713 721 729
862 885 888 871 841 853 845 839 838 862 857 825 805 780 754 755 759 751 750 746 738 730 722 713 702 693 684 676 669 663 655 657 662 664 670 671 677 685 694 702 709 714 725 734
865 893 889 868 854 856 851 846 842 850 833 830 797 790 772 765 764 755 755 747 739 731 723 715 705 697 687 679 673 667 665 664 668 670 677 681 684 691 699 708 720 722 726 737
868 889 871 873 851 847 844 830 827 824 824 817 807 786 767 767 764 760 757 751 742 735 729 720 712 703 694 687 681 677 676 675 677 680 686 692 690 699 708 714 722 729 740 744
873 885 899 893 858 854 844 813 803 812 809 808 801 775 770 772 764 764 759 754 747 740 734 727 720 712 705 697 692 688 687 687 688 692 697 700 706 712 714 725 731 741 746 753
874 875 897 899 886 850 794 801 801 805 797 795 788 780 779 775 767 766 765 759 753 747 740 735 728 721 715 709 703 701 699 699 699 704 710 715 717 722 726 732 742 749 754 771
856 864 907 922 904 840 790 790 792 803 792 783 788 784 779 771 761 762 766 764 759 754 748 742 736 731 725 720 716 712 712 712 713 717 722 727 729 734 737 745 755 762 768 778
859 864 902 926 919 860 788 792 792 795 800 783 787 787 782 772 763 771 771 768 763 758 753 747 743 738 734 731 727 724 725 725 729 733 736 739 742 746 750 758 767 771 779 786
881 870 885 900 905 857 803 795 793 809 787 782 785 786 783 779 784 781 777 772 769 764 759 754 750 746 744 741 737 736 737 739 743 744 746 751 755 759 763 770 777 783 787 792
865 870 890 902 895 845 796 795 786 777 776 778 782 783 783 781 782 782 779 776 773 769 765 762 758 756 754 751 747 747 749 753 752 754 757 761 766 770 773 779 786 790 793 798
850 827 839 837 814 781 784 776 773 775 775 776 779 782 783 781 782 782 781 779 778 776 774 771 768 766 764 762 761 760 763 762 761 763 767 770 774 778 783 786 790 793 797 801
824 820 819 812 771 779 775 771 773 773 773 773 778 780 781 781 781 782 781 781 780 779 778 777 774 774 774 773 771 771 772 773 773 775 779 782 784 787 790 792 794 797 801 804
810 815 815 807 779 773 769 768 765 766 768 772 776 778 779 780 781 781 782 782 782 782 781 780 779 780 780 780 780 780 780 780 780 782 785 788 791 794 796 799 802 803 806 807
797 791 787 776 761 759 758 759 762 765 768 770 774 777 778 779 779 781 783 784 784 784 784 783 783 783 784 784 784 785 786 786 786 787 790 792 793 795 797 799 802 806 808 810
Wind_Speed
6 6 3 3 2 4 3 4 10 12 11 5 12 19 25 19 14 6 5 5 7 8 8 16 19 22 20 16 13 25 30 35 37 37 36 33 36 35 34 37 39 42 42 44
5 2 1 5 4 3 2 7 8 10 4 7 14 23 21 11 5 2 2 5 6 8 10 15 22 20 23 21 18 15 20 32 36 35 31 33 39 38 38 35 37 43 43 45
1 1 3 3 2 4 3 4 5 6 15 2 6 9 6 4 1 3 1 3 5 9 11 12 16 22 22 23 23 19 20 17 33 34 34 31 28 26 31 35 38 43 43 45
3 3 3 3 2 1 6 3 7 12 9 4 6 6 6 3 5 2 5 7 6 9 10 10 12 20 20 23 26 25 23 22 20 36 30 29 30 24 29 36 36 40 46 43
2 4 4 2 2 2 8 9 14 9 5 4 1 4 9 3 1 2 7 10 11 10 11 15 11 18 25 23 26 28 27 24 25 28 37 33 33 30 25 28 35 38 40 42
4 3 2 2 5 3 8 7 8 1 0 2 4 2 8 4 2 2 6 10 10 12 14 15 17 19 22 24 24 25 25 26 21 23 35 32 34 27 30 32 34 37 39 42
7 1 3 2 4 2 10 6 5 6 4 5 2 4 11 3 4 4 9 14 9 15 14 15 11 17 24 25 25 22 20 26 23 18 31 32 35 32 35 36 33 35 38 39
4 8 4 4 1 3 3 2 4 4 4 10 15 6 5 5 4 5 15 16 22 19 16 12 19 19 23 26 24 22 20 23 24 20 17 30 34 34 36 37 36 38 41 45
3 6 3 2 2 3 4 2 4 5 2 4 4 6 8 4 7 18 18 22 22 18 18 20 19 22 24 24 25 23 22 23 22 22 18 31 30 32 33 34 35 35 37 40
2 5 1 4 2 1 4 3 4 3 5 6 6 7 9 5 14 20 22 22 17 20 19 18 18 22 25 24 23 22 22 24 24 22 19 24 29 30 30 33 32 32 32 31
4 3 5 2 1 2 4 3 2 2 2 3 6 8 3 6 18 21 23 17 20 20 19 18 17 24 26 23 22 20 18 19 20 18 17 24 30 30 30 32 31 30 30 32
3 3 5 7 3 3 1 4 4 3 4 4 5 8 4 13 20 26 25 18 20 20 19 19 18 22 21 19 17 17 16 17 16 12 20 32 33 32 30 29 30 31 32 33
4 2 4 9 5 2 2 3 2 0 0 7 3 8 14 22 24 24 14 20 19 20 19 18 17 15 15 17 15 15 16 17 12 22 26 32 33 32 32 33 34 34 37 35
6 3 7 6 5 2 5 6 7 4 3 3 9 20 27 25 25 24 16 19 19 18 18 17 15 15 16 16 14 12 11 17 19 24 21 28 33 34 36 36 38 41 41 44
4 4 4 8 16 9 14 17 12 9 12 5 9 16 26 21 22 18 17 18 18 19 19 18 17 15 14 17 16 17 19 21 21 27 26 26 35 39 41 41 37 42 42 43
1 3 3 5 4 3 9 16 16 14 12 15 19 21 10 20 18 12 18 18 19 17 17 18 17 16 14 18 17 21 21 24 26 27 27 27 37 38 38 41 40 43 41 43
5 1 3 6 6 10 5 6 6 4 6 5 6 10 17 19 17 9 18 18 17 17 16 16 15 14 19 21 21 23 24 27 31 29 28 29 33 34 40 39 41 39 41 44
4 1 1 4 7 4 5 4 6 7 11 8 11 12 13 14 14 4 14 16 16 15 15 14 13 19 22 24 26 26 29 31 32 33 31 30 34 34 40 43 41 41 43 37
3 2 1 1 2 9 6 3 4 4 6 4 5 10 12 14 9 3 16 14 13 13 12 15 19 20 23 24 27 30 30 33 34 33 32 32 35 36 40 41 40 39 41 37
4 3 3 1 1 5 5 4 2 5 4 4 4 5 9 12 9 5 16 14 13 17 17 19 20 21 22 22 28 32 31 33 32 33 34 36 38 39 40 39 36 37 37 33
3 3 5 4 5 10 10 5 2 4 4 4 2 3 5 3 2 6 9 11 15 16 18 20 22 21 21 22 28 29 30 30 31 37 40 39 39 40 41 39 35 35 34 34
8 9 4 3 1 8 8 5 6 3 2 3 3 1 2 3 3 3 6 9 13 15 19 20 20 23 25 23 25 27 27 27 35 40 40 39 38 37 39 35 30 31 34 34
3 7 5 10 7 5 6 4 3 3 3 3 2 2 1 2 3 3 4 7 9 13 14 16 17 20 25 25 22 23 19 29 37 38 35 35 34 32 32 33 32 31 30 28
5 5 4 1 5 16 16 11 5 6 6 4 4 4 2 1 1 2 3 4 6 10 12 15 20 20 21 23 25 25 26 27 30 29 26 25 27 27 27 27 27 28 26 24
4 8 6 6 12 10 14 10 6 5 6 5 5 4 3 2 1 1 2 3 5 8 10 13 17 17 17 16 18 17 19 23 27 26 24 23 22 21 20 18 17 18 17 19
7 8 6 8 8 2 4 1 0 8 7 7 7 5 3 2 3 3 2 4 6 7 9 11 13 15 14 14 14 14 15 19 23 24 22 22 23 22 22 22 19 12 12 12
Wind_Direction
355 55 36 336 259 233 234 240 261 271 279 297 290 297 287 303 302 297 330 4 342 325 310 328 337 347 350 340 313 239 227 217 213 204 203 202 195 200 203 205 207 213 214 211
18 57 327 291 255 260 244 276 282 284 253 328 306 290 287 305 286 202 112 331 314 314 327 341 339 334 343 338 334 311 255 229 220 212 203 202 198 203 206 209 210 215 213 212
112 22 322 304 321 348 274 241 292 291 321 316 328 283 333 325 350 174 305 283 304 305 315 326 331 325 323 329 332 321 306 291 233 221 208 205 198 196 195 200 207 210 211 211
221 333 340 321 25 358 309 186 291 300 333 297 67 288 296 284 294 81 302 324 319 318 328 302 311 317 315 314 320 320 308 292 271 230 214 191 184 189 199 196 199 200 206 203
311 339 331 345 323 325 257 320 293 302 281 306 223 253 273 322 155 304 314 327 317 322 317 313 303 305 306 306 311 313 312 298 261 246 223 203 198 200 197 192 194 197 199 201
263 295 255 284 295 273 298 315 317 104 35 272 233 182 277 274 228 308 285 296 297 318 318 313 301 301 301 301 304 305 307 300 278 257 231 209 204 201 186 187 189 193 195 196
327 264 297 346 319 4 12 5 346 356 4 236 150 286 252 248 217 242 314 332 316 316 315 305 305 311 306 302 301 297 300 296 293 276 235 219 206 203 196 191 186 186 188 189
36 327 14 355 56 298 345 58 125 288 297 293 282 234 257 193 225 277 329 339 330 321 316 310 311 306 303 298 293 290 292 292 296 279 270 215 205 195 197 197 193 193 192 192
41 276 324 263 272 136 287 2 193 261 248 278 268 282 289 212 317 340 336 325 321 320 323 314 310 305 300 295 292 288 285 285 288 288 287 206 202 192 189 194 202 193 192 191
160 312 224 279 294 202 153 310 10 0 309 296 266 281 272 311 337 322 331 324 324 322 316 313 309 306 299 293 293 290 283 277 282 281 266 208 192 191 189 188 183 185 183 177
134 125 278 335 220 188 344 351 345 268 237 272 306 294 237 0 328 334 330 328 331 326 324 319 313 308 300 299 290 281 276 278 277 268 265 170 170 171 171 173 173 172 168 166
167 174 276 255 259 282 263 225 153 128 302 269 269 270 295 336 339 336 327 337 332 329 325 321 319 313 309 306 301 293 283 271 269 262 168 159 159 161 163 157 154 157 147 151
183 280 333 345 5 14 247 189 184 97 87 240 274 278 314 328 336 332 331 337 333 330 330 329 328 325 320 319 314 301 279 251 232 165 149 143 149 150 147 145 146 146 144 140
160 176 181 208 221 103 288 273 278 164 243 269 247 287 312 328 330 332 342 337 333 335 334 335 338 337 335 339 340 351 43 139 137 130 127 125 130 133 135 137 140 139 140 139
152 229 203 257 267 273 269 267 259 210 231 253 276 300 304 333 326 329 338 334 339 343 343 345 346 347 348 3 11 36 59 93 111 110 111 115 119 124 126 126 125 126 127 132
90 273 316 288 300 170 274 267 259 246 249 251 266 284 340 328 322 338 343 343 344 346 346 348 350 355 360 12 30 48 58 76 92 96 99 109 111 114 116 118 120 124 124 125
154 143 31 270 335 309 320 232 209 240 208 202 273 299 328 321 328 349 344 350 345 347 349 352 356 2 11 21 40 55 65 78 83 84 92 99 104 106 106 107 105 105 105 114
123 138 121 277 336 6 248 283 220 229 259 241 268 291 310 311 308 355 357 350 348 349 354 357 3 12 22 36 47 61 71 75 80 82 84 92 97 98 99 100 99 99 100 104
187 167 282 154 258 295 303 201 167 158 284 214 263 297 314 321 309 231 2 355 349 351 358 3 15 25 36 46 59 65 68 75 76 79 82 88 94 96 96 96 99 101 105 109
143 138 127 65 150 228 241 140 100 117 295 197 235 299 332 337 15 337 343 351 358 1 12 14 21 34 40 52 68 72 72 73 76 82 85 89 92 93 94 98 103 107 113 113
158 195 210 194 250 284 254 217 137 78 242 210 206 293 331 10 217 304 331 358 5 12 17 27 33 36 41 58 75 74 77 77 86 91 93 93 97 99 104 108 115 122 120 119
166 166 200 125 207 289 177 94 180 186 165 165 168 216 297 312 357 331 356 5 7 17 21 30 40 36 43 57 75 80 77 91 98 101 102 104 109 112 119 122 123 123 124 121
243 194 180 190 215 249 206 235 176 162 185 171 157 179 252 315 20 17 10 18 18 22 32 43 53 56 58 66 66 67 72 100 108 109 109 114 121 126 132 133 131 128 129 126
235 178 225 130 257 233 243 247 219 206 217 157 153 170 193 134 38 77 59 42 39 40 45 69 72 63 61 78 87 94 102 110 112 108 111 118 123 129 133 135 137 138 138 133
199 146 192 263 279 266 262 238 217 213 164 138 145 164 167 162 150 132 116 91 74 72 77 87 91 87 84 88 91 102 114 119 115 116 118 119 120 120 118 119 130 134 142 150
188 189 179 221 225 175 245 353 329 195 172 167 155 156 168 213 167 152 122 106 112 101 102 101 101 104 105 108 108 115 128 130 126 124 128 132 134 135 135 133 128 137 146 154